When you browse on this site, cookies collect data to enhance your experience and personalize the content and advertising you see.
Visit our Privacy Policy to learn more. By continuing to use the site, you agree to this use of cookies and data.
  • In Lithuania
  • List of Countries
  • For 7 days
  • Water Temperature
  • Weather Map
  • Weather Widgets
  • user-avatar
    Login

    Hourly Weather Ulaangom

    Today, 6 June, Saturday

    Time Temperature Precipitation Wind Pressure Humidity
    00:00 +4°C° 0 mm 8 mps 617 mmHg 59%
    01:00 +3°C° 0 mm 6 mps 617 mmHg 59%
    02:00 +4°C° 0 mm 4 mps 618 mmHg 60%
    03:00 +4°C° 0 mm 2 mps 618 mmHg 61%
    04:00 +5°C° 0 mm 2 mps 619 mmHg 57%
    05:00 +5°C° 0 mm 2 mps 620 mmHg 53%
    06:00 +6°C° 0 mm 2 mps 620 mmHg 49%
    07:00 +6°C° 0.1 mm 2 mps 620 mmHg 47%
    08:00 +7°C° 0.1 mm 3 mps 621 mmHg 46%
    09:00 +6°C° 0.1 mm 4 mps 621 mmHg 44%
    10:00 +6°C° 0.4 mm 4 mps 621 mmHg 48%
    11:00 +6°C° 0.4 mm 4 mps 621 mmHg 52%
    12:00 +6°C° 0 mm 4 mps 621 mmHg 51%
    13:00 +6°C° 0.3 mm 5 mps 621 mmHg 53%
    14:00 +6°C° 0.3 mm 5 mps 620 mmHg 54%
    15:00 +5°C° 0.3 mm 6 mps 620 mmHg 56%
    16:00 +5°C° 0.3 mm 5 mps 621 mmHg 55%
    17:00 +5°C° 0.3 mm 5 mps 621 mmHg 54%
    18:00 +5°C° 0.3 mm 5 mps 622 mmHg 54%
    19:00 +5°C° 0.2 mm 5 mps 622 mmHg 54%
    20:00 +4°C° 0.2 mm 6 mps 623 mmHg 54%
    21:00 +3°C° 0.2 mm 6 mps 623 mmHg 54%
    22:00 +3°C° 0 mm 5 mps 623 mmHg 55%
    23:00 +2°C° 0 mm 5 mps 623 mmHg 57%

    Tomorrow, 7 June, Sunday

    Time Temperature Precipitation Wind Pressure Humidity
    00:00 +3°C° 0 mm 4 mps 624 mmHg 58%
    01:00 +3°C° 0 mm 4 mps 624 mmHg 61%
    02:00 +3°C° 0 mm 4 mps 624 mmHg 64%
    03:00 +3°C° 0 mm 4 mps 624 mmHg 66%
    04:00 +1°C° 0.3 mm 4 mps 625 mmHg 70%
    05:00 +1°C° 0.3 mm 5 mps 625 mmHg 73%
    06:00 +1°C° 0.3 mm 5 mps 625 mmHg 77%
    07:00 +2°C° 0 mm 5 mps 626 mmHg 68%
    08:00 +4°C° 0 mm 6 mps 626 mmHg 59%
    09:00 +5°C° 0 mm 6 mps 627 mmHg 51%
    10:00 +7°C° 0 mm 5 mps 627 mmHg 47%
    11:00 +8°C° 0 mm 5 mps 627 mmHg 43%
    12:00 +10°C° 0 mm 4 mps 627 mmHg 39%
    13:00 +10°C° 0.2 mm 4 mps 627 mmHg 42%
    14:00 +10°C° 0.2 mm 3 mps 626 mmHg 45%
    15:00 +10°C° 0.2 mm 2 mps 626 mmHg 48%
    16:00 +9°C° 0.3 mm 2 mps 626 mmHg 51%
    17:00 +9°C° 0.3 mm 2 mps 626 mmHg 53%
    18:00 +9°C° 0.3 mm 3 mps 626 mmHg 56%
    19:00 +8°C° 0.2 mm 2 mps 626 mmHg 58%
    20:00 +8°C° 0.2 mm 2 mps 626 mmHg 60%
    21:00 +8°C° 0.2 mm 1 mps 626 mmHg 63%
    22:00 +8°C° 0 mm 1 mps 626 mmHg 63%
    23:00 +8°C° 0 mm 1 mps 626 mmHg 64%

    Day after tomorrow, 8 June, Monday

    Time Temperature Precipitation Wind Pressure Humidity
    00:00 +7°C° 0 mm 1 mps 626 mmHg 64%
    01:00 +7°C° 0 mm 1 mps 625 mmHg 63%
    02:00 +7°C° 0 mm 1 mps 625 mmHg 63%
    03:00 +7°C° 0 mm 1 mps 625 mmHg 62%
    04:00 +7°C° 0 mm 1 mps 625 mmHg 59%
    05:00 +7°C° 0 mm 2 mps 626 mmHg 56%
    06:00 +8°C° 0 mm 2 mps 626 mmHg 53%
    07:00 +8°C° 0 mm 2 mps 626 mmHg 55%
    08:00 +8°C° 0 mm 2 mps 626 mmHg 57%
    09:00 +8°C° 0 mm 2 mps 626 mmHg 59%
    10:00 +9°C° 0.3 mm 2 mps 626 mmHg 53%
    11:00 +10°C° 0.3 mm 2 mps 626 mmHg 48%
    12:00 +12°C° 0.3 mm 2 mps 627 mmHg 42%
    13:00 +12°C° 1.1 mm 2 mps 626 mmHg 46%
    14:00 +10°C° 1.1 mm 2 mps 626 mmHg 51%
    15:00 +9°C° 1.1 mm 2 mps 625 mmHg 55%
    16:00 +10°C° 0.2 mm 3 mps 626 mmHg 51%
    17:00 +11°C° 0.2 mm 4 mps 626 mmHg 47%
    18:00 +10°C° 0.2 mm 6 mps 627 mmHg 43%
    19:00 +9°C° 0 mm 5 mps 627 mmHg 47%
    20:00 +8°C° 0 mm 4 mps 626 mmHg 50%
    21:00 +8°C° 0 mm 2 mps 626 mmHg 54%
    22:00 +8°C° 0 mm 2 mps 626 mmHg 56%
    23:00 +7°C° 0 mm 2 mps 626 mmHg 58%

    9 June, Tuesday

    Time Temperature Precipitation Wind Pressure Humidity
    00:00 +7°C° 0 mm 1 mps 626 mmHg 60%
    01:00 +6°C° 0 mm 2 mps 626 mmHg 60%
    02:00 +6°C° 0 mm 2 mps 625 mmHg 59%
    03:00 +6°C° 0 mm 2 mps 625 mmHg 59%
    04:00 +7°C° 0 mm 2 mps 625 mmHg 55%
    05:00 +8°C° 0 mm 3 mps 625 mmHg 52%
    06:00 +9°C° 0 mm 3 mps 626 mmHg 49%
    07:00 +10°C° 0 mm 3 mps 626 mmHg 45%
    08:00 +11°C° 0 mm 4 mps 626 mmHg 41%
    09:00 +13°C° 0 mm 4 mps 626 mmHg 38%
    10:00 +14°C° 0 mm 4 mps 626 mmHg 35%
    11:00 +15°C° 0 mm 4 mps 626 mmHg 33%
    12:00 +18°C° 0 mm 4 mps 626 mmHg 30%
    13:00 +18°C° 0 mm 3 mps 626 mmHg 29%
    14:00 +19°C° 0 mm 3 mps 626 mmHg 28%
    15:00 +19°C° 0 mm 3 mps 625 mmHg 27%
    16:00 +18°C° 0 mm 4 mps 625 mmHg 32%
    17:00 +16°C° 0 mm 5 mps 624 mmHg 36%
    18:00 +14°C° 0 mm 6 mps 624 mmHg 41%
    19:00 +13°C° 0 mm 5 mps 624 mmHg 49%
    20:00 +12°C° 0 mm 4 mps 624 mmHg 57%
    21:00 +10°C° 0 mm 3 mps 624 mmHg 65%
    22:00 +10°C° 0.1 mm 3 mps 624 mmHg 67%
    23:00 +10°C° 0.1 mm 3 mps 624 mmHg 70%

    10 June, Wednesday

    Time Temperature Precipitation Wind Pressure Humidity
    00:00 +10°C° 0.1 mm 3 mps 624 mmHg 72%
    01:00 +9°C° 0 mm 3 mps 623 mmHg 74%
    02:00 +8°C° 0 mm 3 mps 623 mmHg 76%
    03:00 +6°C° 0 mm 4 mps 623 mmHg 78%
    04:00 +6°C° 0.2 mm 4 mps 623 mmHg 78%
    05:00 +6°C° 0.2 mm 4 mps 623 mmHg 79%
    06:00 +6°C° 0.2 mm 4 mps 623 mmHg 79%
    07:00 +8°C° 0.7 mm 3 mps 623 mmHg 79%
    08:00 +8°C° 0.7 mm 3 mps 623 mmHg 79%
    09:00 +8°C° 0.7 mm 3 mps 623 mmHg 78%
    10:00 +9°C° 0.1 mm 3 mps 623 mmHg 76%
    11:00 +8°C° 0.1 mm 4 mps 623 mmHg 74%
    12:00 +10°C° 0.1 mm 4 mps 624 mmHg 71%
    13:00 +9°C° 0.1 mm 5 mps 623 mmHg 73%
    14:00 +9°C° 0.1 mm 5 mps 623 mmHg 75%
    15:00 +8°C° 0.1 mm 6 mps 623 mmHg 77%
    16:00 +8°C° 1.4 mm 6 mps 623 mmHg 80%
    17:00 +7°C° 1.4 mm 6 mps 623 mmHg 82%
    18:00 +5°C° 1.4 mm 6 mps 623 mmHg 85%
    19:00 +6°C° 0.3 mm 5 mps 624 mmHg 83%
    20:00 +6°C° 0.3 mm 4 mps 624 mmHg 81%
    21:00 +7°C° 0.3 mm 3 mps 625 mmHg 79%
    22:00 +7°C° 0.1 mm 3 mps 625 mmHg 81%
    23:00 +7°C° 0.1 mm 3 mps 625 mmHg 82%

    11 June, Thursday

    Time Temperature Precipitation Wind Pressure Humidity
    00:00 +6°C° 0.1 mm 4 mps 625 mmHg 84%
    01:00 +6°C° 0.5 mm 4 mps 624 mmHg 86%
    02:00 +5°C° 0.5 mm 4 mps 624 mmHg 87%
    03:00 +5°C° 0.5 mm 4 mps 624 mmHg 89%
    04:00 +5°C° 0.7 mm 4 mps 624 mmHg 88%
    05:00 +5°C° 0.7 mm 4 mps 624 mmHg 86%
    06:00 +5°C° 0.7 mm 4 mps 624 mmHg 85%
    07:00 +6°C° 0.6 mm 4 mps 624 mmHg 79%
    08:00 +6°C° 0.6 mm 4 mps 625 mmHg 74%
    09:00 +7°C° 0.6 mm 5 mps 625 mmHg 69%
    10:00 +9°C° 0.1 mm 5 mps 625 mmHg 62%
    11:00 +10°C° 0.1 mm 5 mps 626 mmHg 56%
    12:00 +12°C° 0.1 mm 5 mps 626 mmHg 49%
    13:00 +13°C° 0 mm 5 mps 626 mmHg 47%
    14:00 +13°C° 0 mm 5 mps 626 mmHg 46%
    15:00 +14°C° 0 mm 5 mps 626 mmHg 45%
    16:00 +14°C° 0 mm 5 mps 625 mmHg 45%
    17:00 +14°C° 0 mm 5 mps 625 mmHg 44%
    18:00 +14°C° 0 mm 4 mps 625 mmHg 44%
    19:00 +12°C° 0 mm 4 mps 625 mmHg 51%
    20:00 +11°C° 0 mm 4 mps 625 mmHg 57%
    21:00 +10°C° 0 mm 4 mps 625 mmHg 63%
    22:00 +10°C° 0 mm 4 mps 625 mmHg 66%
    23:00 +8°C° 0 mm 4 mps 625 mmHg 68%
    Show more